Regional Weather Roundup
Issued by NWS

Home | Current Version | Previous Version | Text Only | Print | Product List | Glossary On
Versions: 1 2 3 4 5 6 7 8 9 10 11 12 13 14 15 16 17 18 19 20 21 22 23 24 25 26 27 28 29 30 31 32 33 34 35 36 37 38 39 40 41 42 43 44 45 46 47 48 49 50
000
ASUS43 KBIS 200410
RWRND

NORTH DAKOTA REGIONAL WEATHER ROUNDUP
NATIONAL WEATHER SERVICE BISMARCK ND
1100 PM CDT FRI SEP 19 2014

NOTE: "FAIR" INDICATES FEW OR NO CLOUDS BELOW 12,000 FEET WITH NO
SIGNIFICANT WEATHER AND/OR OBSTRUCTIONS TO VISIBILITY.


NDZ001>003-009>011-017-200500-
NORTHWEST NORTH DAKOTA

CITY           SKY/WX    TMP DP  RH WIND       PRES   REMARKS
WILLISTON      MOCLDY    56  49  77 W7        29.83R
MINOT          CLEAR     62  53  72 W12       29.78R
MINOT AFB      PTCLDY    77  57  50 NW23      29.60R
$$

NDZ018>021-031>035-040>046-200500-
SOUTHWEST NORTH DAKOTA

CITY           SKY/WX    TMP DP  RH WIND       PRES   REMARKS
BISMARCK       PTCLDY    65  53  65 NW6       29.81R
DICKINSON      CLEAR     56  48  74 W7        29.85R
GARRISON         N/A     53  50  89 NW8       29.81R
HETTINGER ARPT PTCLDY    53  47  79 W5        29.89R
$$

NDZ004>008-012>016-024-026-027-054-200500-
NORTHEAST NORTH DAKOTA

CITY           SKY/WX    TMP DP  RH WIND       PRES   REMARKS
GRAND FORKS    MOCLDY    62  54  74 N14       29.66R
GRND FRKS AFB  MOCLDY    62  56  81 N10       29.68R
DEVILS LAKE    CLEAR     61  52  72 N7        29.73R
$$

NDZ022-023-025-028>030-036>039-047>053-200500-
SOUTHEAST NORTH DAKOTA

CITY           SKY/WX    TMP DP  RH WIND       PRES   REMARKS
FARGO          MOCLDY    70  55  59 NW13      29.64R
JAMESTOWN      MOCLDY    63  56  78 NW10      29.73R
$$



USA.gov is the U.S. government's official web portal to all federal, state and local government web resources and services.